Location: Unspecified
(35.4036°N, 0.0000°E)
Time: 03:11:53
(UTC+00:00)

Tiros 1 despin weight - All Passes

Search period start: 04 April 2026 00:00
Search period end: 14 April 2026 00:00
Orbit: 555 x 593 km, 48.2° (Epoch: 29 March)

Date Brightness Start Highest point End Pass type
(mag) Time Alt. Az. Time Alt. Az. Time Alt. Az.
4 Apr - 00:26:40 10° NNW 00:29:19 15° N 00:31:57 10° NE night (unlit)
4 Apr - 02:07:10 10° NW 02:11:00 28° NNE 02:14:48 10° E visible
4 Apr - 03:47:28 10° WNW 03:51:50 64° SW 03:56:10 10° SE visible
4 Apr - 19:24:25 10° SSW 19:28:04 27° SE 19:31:45 10° ENE visible
4 Apr - 21:04:15 10° WSW 21:08:28 48° NNW 21:12:42 10° NE visible
4 Apr - 22:46:48 10° NW 22:49:50 18° NNW 22:52:51 10° NNE night (unlit)
5 Apr - 00:28:53 10° NNW 00:31:42 16° N 00:34:32 10° NE night (unlit)
5 Apr - 02:09:06 10° NW 02:13:13 37° NNE 02:17:20 10° E visible
5 Apr - 03:49:42 10° WNW 03:53:49 39° SW 03:57:54 10° SSE visible
5 Apr - 19:25:54 10° SSW 19:29:59 44° SE 19:34:09 10° ENE visible
5 Apr - 21:06:40 10° W 21:10:38 34° NNW 21:14:39 10° NE visible
5 Apr - 22:49:28 10° NW 22:52:12 16° N 22:54:57 10° NNE night (unlit)
6 Apr - 00:30:57 10° NNW 00:34:04 19° NNE 00:37:13 10° ENE night (unlit)
6 Apr - 02:11:03 10° NW 02:15:23 54° NNE 02:19:42 10° ESE night (unlit)
6 Apr - 03:52:09 10° WNW 03:55:44 24° SW 03:59:16 10° S visible
6 Apr - 19:27:41 10° SW 19:31:58 73° SE 19:36:20 10° ENE visible
6 Apr - 21:09:12 10° W 21:12:52 26° NNW 21:16:34 10° NE visible
6 Apr - 22:52:00 10° NW 22:54:35 15° N 22:57:12 10° NE night (unlit)
7 Apr - 00:32:55 10° NNW 00:36:24 22° NNE 00:39:53 10° ENE night (unlit)
7 Apr - 02:13:03 10° NW 02:17:28 82° NE 02:21:52 10° SE night (unlit)
7 Apr - 03:55:05 10° W 03:57:34 15° SW 04:00:02 10° SSW night (unlit)
7 Apr - 17:51:07 10° S 17:53:52 17° SE 17:56:38 10° E daylight
7 Apr - 19:29:42 10° WSW 19:34:00 72° NW 19:38:22 10° NE visible
7 Apr - 21:11:50 10° WNW 21:15:09 21° NNW 21:18:29 10° NNE visible
7 Apr - 22:54:21 10° NNW 22:56:59 15° N 22:59:36 10° NE visible
8 Apr - 00:34:50 10° NW 00:38:40 28° NNE 00:42:29 10° E night (unlit)
8 Apr - 02:15:07 10° WNW 02:19:29 64° SW 02:23:50 10° SE night (unlit)
8 Apr - 17:52:05 10° SSW 17:55:42 27° SE 17:59:23 10° ENE daylight
8 Apr - 19:31:56 10° WSW 19:36:06 47° NNW 19:40:20 10° NE visible
8 Apr - 21:14:29 10° NW 21:17:28 18° NNW 21:20:27 10° NNE visible
8 Apr - 22:56:32 10° NNW 22:59:21 16° N 23:02:10 10° NE visible
9 Apr - 00:36:44 10° NW 00:40:51 38° NNE 00:44:58 10° E night (unlit)
9 Apr - 02:17:19 10° WNW 02:21:25 39° SW 02:25:31 10° SSE night (unlit)
9 Apr - 17:53:32 10° SSW 17:57:36 44° SE 18:01:44 10° ENE daylight
9 Apr - 19:34:19 10° W 19:38:15 34° NNW 19:42:13 10° NE visible
9 Apr - 21:17:06 10° NW 21:19:49 16° N 21:22:31 10° NNE visible
9 Apr - 22:58:33 10° NNW 23:01:40 19° NNE 23:04:48 10° ENE visible
10 Apr - 00:38:39 10° NW 00:42:58 54° NNE 00:47:18 10° ESE night (unlit)
10 Apr - 02:19:45 10° W 02:23:18 24° SW 02:26:50 10° S night (unlit)
10 Apr - 17:55:18 10° SW 17:59:32 73° SE 18:03:52 10° ENE daylight
10 Apr - 19:36:49 10° W 19:40:26 25° NNW 19:44:06 10° NE visible
10 Apr - 21:19:36 10° NW 21:22:10 15° N 21:24:43 10° NE visible
10 Apr - 23:00:29 10° NNW 23:03:57 22° NNE 23:07:26 10° ENE visible
11 Apr - 00:40:36 10° NW 00:45:01 83° NE 00:49:26 10° SE night (unlit)
11 Apr - 02:22:39 10° W 02:25:06 15° SW 02:27:34 10° SSW night (unlit)
11 Apr - 16:18:41 10° S 16:21:25 17° SE 16:24:10 10° E daylight
11 Apr - 17:57:17 10° WSW 18:01:32 71° NW 18:05:52 10° NE daylight
11 Apr - 19:39:25 10° WNW 19:42:40 20° NNW 19:45:59 10° NNE visible
11 Apr - 21:21:56 10° NNW 21:24:31 15° N 21:27:07 10° NE visible
11 Apr - 23:02:22 10° NW 23:06:11 28° NNE 23:10:00 10° E visible
12 Apr - 00:42:38 10° WNW 00:47:00 63° SW 00:51:20 10° SE night (unlit)
12 Apr - 16:19:37 10° SSW 16:23:13 27° SE 16:26:52 10° ENE daylight
12 Apr - 17:59:29 10° WSW 18:03:36 47° NNW 18:07:48 10° NE daylight
12 Apr - 19:42:02 10° NW 19:44:58 17° NNW 19:47:55 10° NNE visible
12 Apr - 21:24:03 10° NNW 21:26:50 16° N 21:29:38 10° NE visible
12 Apr - 23:04:14 10° NW 23:08:20 38° NNE 23:12:27 10° E visible
13 Apr - 00:44:48 10° WNW 00:48:54 38° SW 00:52:58 10° SSE night (unlit)
13 Apr - 16:21:03 10° SSW 16:25:05 44° SE 16:29:11 10° ENE daylight
13 Apr - 18:01:49 10° W 18:05:42 33° NNW 18:09:40 10° NE daylight
13 Apr - 19:44:38 10° NW 19:47:16 16° N 19:49:56 10° NNE visible
13 Apr - 21:26:02 10° NNW 21:29:08 19° NNE 21:32:14 10° ENE visible
13 Apr - 23:06:06 10° NW 23:10:25 54° NNE 23:14:44 10° ESE visible
